Погода в Узине

Украина / Киевская область     49°49′42″N   30°25′11″E
темп.,
°C
ветер,
м/с
пор.,
м/с
влажн.,
%
обл.,
%
осадки,
мм/ч
давл.,
гПа
погр.,
м
15 мая, сб
сб1500:00+10юз339213 0.0 100837
03:00+9юз35945 0.1 100883
06:00+9юз359527 0.0 100992
09:00+15юз57745 0.0 1010561
12:00+18юз675869 0.1 10111594
15:00+18юз695736 0.7 10111752
18:00+17зюз687143 0.1 10111195
21:00+12зюз22905 0.1 101216
16 мая, вс
вс1600:00+10зюз22934 0.0 101318
03:00+9ююз22930 0.0 101320
06:00+10в11900 0.0 101310
09:00+16юв237411 0.0 1013385
12:00+21юв3460100 0.0 10121046
15:00+22юв4553100 0.2 10112051
18:00+19вюв3469100 0.0 101057
21:00+17в3863100 0.0 1009149
17 мая, пн
пн1700:00+15вюв3465100 0.0 100945
03:00+15в2273100 0.1 100822
06:00+14з3489100 1.2 100773
09:00+14ссз2394100 5.4 1008129
12:00+17с4582100 0.5 1007505
15:00+19с237261 1.2 1007948
18:00+19с227323 0.9 1006828
21:00+14ссз11895 0.9 100610
18 мая, вт
вт1800:00+13зюз11925 0.1 100711
03:00+12з1193100 0.1 100610
06:00+12з22967 0.1 100738
09:00+16зсз2281100 0.3 1007414
12:00+18зсз227093 0.6 1007853
15:00+18сз3375100 2.3 1006580
18:00+14с3693100 3.5 1006247
21:00+13зсз3693100 3.8 1008205
19 мая, ср
ср1900:00+12з3693100 0.0 1009153
03:00+12з2491100 0.0 100995
06:00+10з2494100 0.0 100972
09:00+15зсз227846 0.1 1010409
12:00+18ююв1165100 0.8 10101038
15:00+17св3372100 2.4 1009700
18:00+14ююв2493100 4.9 1008132
21:00+13всв1295100 6.8 100833